Weather History for Randolph AFB, TX

Change the Weather History Date:

Saturday, November 9, 2013

  Actual Average Record
Temperature  
Mean Temperature 61 °F -  
Max Temperature 68 °F 70 °F 84 °F (2005)
Min Temperature 54 °F 51 °F 33 °F (2000)
Degree Days  
Heating Degree Days 4    
Growing Degree Days 11 (Base 50)    
Moisture  
Dew Point 53 °F    
Average Humidity 75    
Maximum Humidity 88    
Minimum Humidity 61    
Precipitation  
Precipitation 0.02 in - - ()
Sea Level Pressure  
Sea Level Pressure 30.16 in    
Wind  
Wind Speed 4 mph (ESE)    
Max Wind Speed 8 mph    
Max Gust Speed -    
Visibility 10 miles    
Events      
Averages and records for this station are not official NWS values.
T = Trace of Precipitation, MM = Missing Value Source: NWS Daily Summary

Daily Weather History Graph

Daily Weather History Graph

Search for Another Location

Airport:

Trip Planner

Search our weather history database for the weather conditions in past years. The results will help you decide how hot, cold, wet, or windy it might be!

Date:

Astronomy

Nov. 09, 2013 Rise Set
Actual Time 6:52 AM CST 5:40 PM CST
Civil Twilight 6:27 AM CST 6:05 PM CST
Nautical Twilight 5:59 AM CST 6:34 PM CST
Astronomical Twilight 5:31 AM CST 7:02 PM CST
Moon 12:35 PM CST (11/9) No Moon Set
Length of Visible Light 11h 37m
Length of Day
10h 48m
Waxing Crescent, 44% of the Moon is Illuminated
Nov 9
Waxing Crescent
Nov 9
First Quarter
Nov 17
Full
Nov 25
Last Quarter
Dec 2
New

Hourly Weather History & Observations

Time (CST) Temp. Dew Point Humidity Pressure Visibility Wind Dir Wind Speed Gust Speed Precip Events Conditions
12:58 AM 55.2 °F 45.7 °F 70% 30.16 in 10.0 mi SE 4.6 mph - N/A   Scattered Clouds
1:58 AM 54.9 °F 45.7 °F 71% 30.15 in 10.0 mi SSE 5.8 mph - N/A   Mostly Cloudy
2:58 AM 54.5 °F 45.1 °F 71% 30.14 in 10.0 mi South 2.3 mph - N/A   Scattered Clouds
3:58 AM 54.7 °F 46.2 °F 73% 30.13 in 10.0 mi SE 2.3 mph - N/A   Scattered Clouds
4:58 AM 54.5 °F 46.9 °F 76% 30.13 in 10.0 mi South 2.3 mph - N/A   Scattered Clouds
5:58 AM 54.7 °F 48.7 °F 80% 30.15 in 10.0 mi East 1.2 mph - N/A   Mostly Cloudy
6:34 AM 55.4 °F 48.2 °F 77% 30.16 in 10.0 mi Calm Calm - N/A   Light Drizzle
6:54 AM 55.4 °F 50.0 °F 82% 30.16 in 10.0 mi Calm Calm - N/A   Partly Cloudy
6:58 AM 55.4 °F 50.0 °F 82% 30.16 in 10.0 mi ENE 2.3 mph - 0.00 in   Partly Cloudy
7:15 AM 55.4 °F 50.0 °F 82% 30.16 in 10.0 mi ENE 3.5 mph - N/A   Light Drizzle
7:58 AM 54.5 °F 49.6 °F 84% 30.17 in 10.0 mi East 3.5 mph - 0.01 in   Light Drizzle
8:58 AM 54.9 °F 50.7 °F 86% 30.20 in 10.0 mi North 3.5 mph - 0.01 in   Light Drizzle
9:28 AM 55.4 °F 51.8 °F 88% 30.20 in 10.0 mi NNE 4.6 mph - N/A   Partly Cloudy
9:58 AM 56.5 °F 51.8 °F 84% 30.21 in 10.0 mi NNE 3.5 mph - 0.00 in   Partly Cloudy
10:58 AM 59.9 °F 51.8 °F 75% 30.20 in 10.0 mi East 2.3 mph - N/A   Partly Cloudy
11:58 AM 64.0 °F 54.3 °F 71% 30.17 in 10.0 mi Variable 1.2 mph - N/A   Clear
12:35 PM 66.2 °F 55.4 °F 68% 30.16 in 10.0 mi SSE 5.8 mph - N/A   Light Drizzle
12:42 PM 68.0 °F 55.4 °F 64% 30.15 in 10.0 mi SSW 6.9 mph - N/A   Clear
12:58 PM 67.8 °F 55.6 °F 65% 30.14 in 10.0 mi South 6.9 mph - 0.00 in   Clear
1:58 PM 68.9 °F 55.2 °F 62% 30.11 in 10.0 mi South 8.1 mph - N/A   Mostly Cloudy
2:58 PM 68.9 °F 55.0 °F 61% 30.11 in 10.0 mi South 6.9 mph - N/A   Overcast
3:58 PM 68.9 °F 54.9 °F 61% 30.11 in 10.0 mi South 5.8 mph - N/A   Overcast
4:58 PM 68.4 °F 55.6 °F 64% 30.12 in 10.0 mi South 2.3 mph - N/A   Mostly Cloudy
5:58 PM 66.7 °F 57.6 °F 72% 30.12 in 10.0 mi South 2.3 mph - N/A   Overcast
6:58 PM 65.8 °F 57.7 °F 75% 30.14 in 10.0 mi NE 2.3 mph - N/A   Overcast
7:58 PM 64.2 °F 57.0 °F 77% 30.16 in 10.0 mi NE 3.5 mph - N/A   Overcast
8:58 PM 64.2 °F 57.0 °F 77% 30.17 in 10.0 mi ENE 3.5 mph - N/A   Overcast
9:58 PM 64.0 °F 57.7 °F 80% 30.17 in 10.0 mi NE 3.5 mph - N/A   Overcast
10:58 PM 63.9 °F 58.1 °F 81% 30.18 in 10.0 mi ENE 3.5 mph - N/A   Overcast
11:58 PM 63.5 °F 58.3 °F 83% 30.17 in 10.0 mi ENE 3.5 mph - N/A   Overcast